Location: Codford Saint Peter
(51.1597°N, 2.0531°W)
Time: 05:12:13
(UTC+00:00)

USA 238 DEB - Pass Details

Date: 18 September 2020
Orbit: 1006 x 1206 km, 63.4° (Epoch: 15 October)

Event Time Altitude Azimuth Distance (km) Brightness Sun altitude
Rises 19:30:04 0° 314° (NW) 3,916 7.9 -12.4°
Reaches altitude 10° 19:32:42 10° 316° (NW) 2,985 7.1 -12.8°
Maximum altitude 19:39:52 78° 43° (NE) 1,179 3.9 -13.9°
Enters shadow 19:45:39 18° 129° (SE) 2,527 5.1 -14.7°
